Wind_Speed
21 21 19 24 28 28 31 32 29 23 29 24 22 20 18 19 17 12 12 14 18 20 18 17 24 27 28 29 27 27 26 25 25 22 23 26 30 38 40 38 41 37 37 26
17 22 24 22 26 27 26 27 31 33 31 24 26 23 24 22 21 15 16 16 19 19 19 20 24 25 24 23 23 21 21 22 20 22 25 32 31 36 41 48 46 40 34 25
16 15 20 24 27 27 29 27 24 25 28 30 27 22 25 23 20 18 18 18 20 20 17 17 22 22 21 20 20 21 21 22 24 25 29 30 29 33 39 37 35 29 21 18
12 1 13 15 19 23 26 28 24 20 17 24 21 16 18 19 13 18 16 15 15 16 15 19 20 21 20 20 21 22 22 23 24 26 27 29 29 32 33 31 27 22 16 19
11 14 11 18 8 17 22 25 28 21 20 12 9 11 13 9 9 13 12 12 14 17 20 23 23 23 23 22 22 23 22 24 25 27 25 24 27 29 31 30 28 25 19 19
8 14 18 3 12 15 14 15 23 25 17 21 12 12 13 6 7 10 13 14 15 23 24 25 25 26 25 24 24 24 25 26 27 26 26 27 25 23 25 25 25 23 19 21
10 10 8 11 13 6 9 8 21 17 19 17 16 3 7 10 8 10 14 16 25 25 23 24 25 25 22 22 21 22 23 25 26 27 26 25 24 22 19 18 18 18 20 24
7 9 15 9 2 1 14 14 7 10 13 13 14 15 14 15 16 18 20 19 24 23 22 20 20 20 19 17 17 18 20 21 22 22 20 20 22 21 20 19 18 16 19 19
11 8 5 6 1 1 7 4 8 12 17 19 23 20 20 18 17 18 19 15 21 19 18 16 14 13 14 14 16 18 19 20 19 18 17 17 19 17 17 17 17 16 18 19
9 5 9 9 6 8 6 6 15 12 17 17 18 20 18 14 14 14 13 12 16 15 13 12 11 13 14 14 15 17 18 17 16 17 17 17 17 15 14 15 14 16 18 11
5 6 13 13 10 7 4 7 13 14 15 15 14 17 19 13 13 12 12 11 10 9 10 10 11 11 12 12 14 15 15 17 18 16 16 13 9 9 12 5 5 8 8 9
6 9 9 9 9 3 10 12 13 16 18 17 18 17 16 14 13 8 10 10 7 8 9 9 11 12 13 14 16 17 15 13 13 13 13 12 9 5 8 4 7 6 7 6
4 9 15 15 8 9 10 13 13 16 16 15 15 15 15 12 9 9 12 9 5 5 6 9 11 14 13 13 12 14 13 13 13 11 12 12 12 13 12 5 5 6 6 9
16 14 13 11 8 12 9 12 14 15 13 12 12 12 10 8 8 10 10 8 4 3 5 8 11 13 14 13 12 10 10 10 10 11 12 10 9 11 11 11 9 6 5 7
14 16 12 15 10 6 7 8 13 9 6 7 10 10 9 7 6 6 5 4 2 1 2 6 10 12 11 11 10 7 7 11 11 12 10 7 9 10 11 9 9 11 10 10
11 13 10 12 11 7 8 8 9 6 5 8 8 8 8 6 5 3 2 3 2 1 1 4 9 12 13 12 13 12 9 12 10 6 6 8 8 9 8 9 9 12 15 14
10 10 11 7 7 8 11 9 7 6 6 8 9 11 10 8 6 5 5 3 1 0 0 5 10 13 14 14 11 9 10 12 13 12 11 9 7 7 7 8 10 10 10 8
7 6 6 4 6 6 7 6 4 6 7 6 6 6 7 6 6 7 6 5 5 6 5 6 11 13 14 14 10 10 13 14 12 8 7 7 6 5 6 9 9 9 8 9
8 3 3 3 5 3 2 3 5 4 5 7 6 6 9 10 9 8 7 7 6 6 6 7 11 10 12 13 15 13 12 11 10 6 6 4 6 9 10 11 9 6 9 10
6 5 5 6 6 5 3 5 2 3 4 4 3 7 8 9 8 6 7 11 9 8 9 10 9 9 11 11 10 7 8 7 5 5 5 7 9 10 9 5 8 9 10 11
6 5 5 7 8 7 6 4 5 6 6 7 7 7 7 8 8 6 3 7 8 5 9 8 8 10 10 10 8 8 6 5 4 4 5 8 7 10 10 10 9 11 12 11
3 4 5 6 6 8 7 7 7 7 7 7 7 7 5 6 5 8 9 9 9 6 7 9 10 6 10 8 5 5 4 4 3 4 4 5 7 7 8 8 9 9 8 8
5 5 6 8 6 4 6 8 8 6 7 6 6 6 6 7 7 6 5 7 5 3 3 6 8 9 8 3 4 5 5 4 3 3 4 6 8 9 10 10 10 9 9 9
5 4 5 4 6 5 6 8 9 7 6 4 5 5 8 9 4 6 3 3 3 3 1 8 9 9 6 3 4 4 4 4 5 5 4 4 8 7 9 11 12 13 12 10
8 5 7 7 6 6 6 7 3 6 5 0 0 1 1 4 6 7 5 3 1 3 5 5 7 8 8 9 8 8 8 8 8 8 9 8 9 10 10 10 11 12 11 12
12 10 10 11 10 10 10 10 10 9 10 9 9 8 8 8 6 6 4 2 4 4 7 6 10 13 14 14 13 12 12 12 10 12 11 12 10 10 12 13 13 12 13 13
14 16 13 12 13 13 12 10 11 11 10 11 13 12 11 10 10 10 8 10 11 11 10 11 12 13 13 15 14 14 14 14 14 14 13 13 12 12 12 12 13 13 13 13
Wind_Direction
231 255 239 233 219 223 233 240 239 236 235 235 240 247 244 254 254 235 216 199 198 197 191 193 198 201 204 209 207 211 210 211 209 202 192 192 191 193 194 187 198 209 216 215
247 244 242 237 233 239 230 236 241 241 247 236 232 235 246 246 246 230 220 203 202 196 194 193 195 196 196 201 203 202 207 207 204 184 185 188 196 192 192 196 202 213 220 214
245 233 233 240 241 227 229 239 232 234 238 239 247 243 231 237 233 231 222 204 196 194 196 188 187 187 184 186 188 188 192 193 191 183 187 190 201 199 200 202 204 210 211 213
255 212 238 250 235 240 235 228 235 250 242 224 220 245 228 240 244 235 223 199 190 188 179 173 176 176 172 172 176 180 183 186 185 182 190 194 199 206 208 209 210 215 212 220
237 234 277 290 326 237 242 238 226 222 234 246 247 238 230 233 223 241 210 198 175 169 166 166 166 161 160 165 169 171 175 179 181 186 193 194 200 205 208 204 210 215 224 233
190 239 232 90 9 341 318 251 243 239 224 239 212 229 228 162 200 205 177 180 169 162 157 158 151 155 155 156 162 170 174 178 179 184 188 193 200 203 208 216 209 219 236 233
201 229 234 29 344 21 236 268 222 204 220 221 211 290 103 125 141 147 130 145 139 144 142 141 144 147 151 156 164 167 171 174 179 184 188 189 195 185 209 209 210 221 234 227
205 234 234 15 6 322 333 304 270 209 191 179 135 126 119 117 126 127 121 131 125 124 126 133 141 148 147 152 154 160 166 168 174 179 182 188 181 174 185 205 215 226 228 228
225 232 75 38 53 108 353 51 99 118 127 138 124 114 106 107 109 105 108 113 117 117 119 124 130 142 140 141 151 155 157 161 168 172 183 176 170 173 187 205 222 225 227 228
182 103 86 99 76 44 28 84 99 98 110 106 107 106 100 97 89 88 91 99 107 115 117 113 113 120 133 146 152 155 154 159 163 174 173 169 174 182 204 209 215 223 232 225
125 137 116 70 53 70 94 77 85 79 79 81 77 72 90 77 75 79 78 75 85 104 110 116 117 117 128 141 153 157 160 164 173 169 174 178 181 185 217 193 224 239 221 216
189 127 88 70 40 51 83 75 74 74 73 62 66 69 63 66 62 65 79 68 72 97 118 124 118 122 136 149 159 155 154 161 162 166 171 179 168 177 198 161 190 213 214 216
91 89 94 82 23 36 72 71 70 74 67 72 59 65 67 73 69 65 81 79 68 79 106 123 125 123 130 141 148 149 152 155 160 173 173 176 181 192 181 162 171 184 185 184
101 107 86 82 60 347 18 68 65 46 55 56 64 68 70 62 61 55 42 46 56 90 140 137 129 127 136 137 137 146 148 155 171 171 166 172 192 200 208 193 191 145 145 155
47 57 82 99 98 22 44 56 73 50 42 72 54 52 44 41 35 29 21 6 14 118 109 137 136 133 140 137 135 138 159 164 167 158 172 190 191 194 200 202 204 159 146 147
74 57 47 64 93 85 51 45 52 71 67 42 55 59 43 50 39 55 16 8 341 26 311 150 161 154 151 144 138 139 131 150 162 169 160 172 172 183 192 203 197 192 194 180
62 59 62 8 48 15 35 19 347 9 38 35 29 31 28 36 58 39 40 36 55 101 125 161 163 156 151 148 152 140 138 147 147 143 144 144 150 172 182 203 210 206 207 195
91 109 67 325 359 41 27 349 7 26 33 25 34 43 40 41 41 37 26 34 78 70 85 146 159 157 159 159 156 147 145 145 142 145 162 173 179 208 214 224 223 220 216 154
72 85 89 95 82 36 12 350 360 16 27 33 27 38 52 41 41 38 41 58 86 103 93 120 145 147 143 145 138 145 151 166 178 177 209 157 195 226 230 234 231 235 220 204
122 105 99 97 84 69 59 16 40 55 37 47 45 51 57 50 48 44 80 75 58 92 111 124 127 127 133 146 146 153 175 179 178 184 207 223 229 228 235 224 240 219 227 227
106 107 86 54 68 66 69 51 67 64 55 52 56 51 43 37 39 19 85 87 78 101 111 124 133 135 130 139 148 158 168 170 198 210 209 229 217 243 226 234 225 241 239 237
88 67 56 52 58 67 55 61 66 67 69 73 62 53 63 65 74 85 60 62 104 117 142 129 123 117 132 144 140 157 161 167 186 204 219 232 243 250 252 248 245 245 246 250
87 83 65 52 53 50 76 62 61 50 45 45 48 38 28 24 20 14 88 70 106 152 139 113 130 134 134 158 153 157 152 173 185 224 249 258 261 261 257 252 246 241 246 246
61 65 49 37 33 48 56 41 32 32 21 13 25 19 12 2 76 39 81 104 96 166 356 133 169 169 181 182 198 198 206 225 242 252 256 262 273 266 266 257 244 242 248 244
24 37 37 17 26 49 38 26 317 33 17 125 34 316 283 62 6 12 348 61 68 220 225 196 207 209 228 259 240 239 246 252 260 263 261 257 269 266 260 257 250 246 255 261
30 35 54 42 26 11 7 2 2 23 352 352 345 348 342 339 321 302 315 304 305 263 274 226 212 220 242 255 263 262 262 262 249 245 256 272 265 263 269 258 254 249 250 259
53 34 38 33 26 17 14 5 353 351 354 356 334 343 344 339 344 331 325 306 298 297 279 266 259 236 246 263 262 252 255 257 257 266 261 254 255 260 265 261 254 256 262 264
Height
663 656 654 659 664 669 670 666 675 669 671 664 659 659 655 648 645 652 659 662 663 666 671 680 688 694 704 711 718 724 732 739 745 753 761 766 768 768 771 776 774 774 776 785
667 654 654 660 655 655 656 657 656 661 659 640 641 645 647 644 641 647 654 654 658 663 669 674 683 691 699 707 714 721 727 733 741 748 754 756 760 762 762 760 764 769 774 780
673 648 651 666 647 644 649 643 646 660 646 640 641 638 637 636 637 640 642 644 651 656 664 671 679 688 695 703 709 715 722 727 733 740 746 750 755 757 755 758 761 766 772 778
668 663 690 640 619 624 633 634 630 635 629 625 629 627 627 625 625 629 633 638 646 650 659 669 676 684 691 698 704 710 716 722 729 735 741 745 749 753 755 761 765 769 772 777
673 668 653 642 630 633 637 634 620 629 625 624 625 634 636 629 627 627 627 633 640 648 658 665 671 679 685 694 700 706 712 718 724 731 737 742 745 747 750 754 762 766 770 773
658 672 677 655 651 647 646 652 613 612 621 626 628 647 621 625 626 627 627 634 640 647 655 662 667 675 683 690 696 701 706 712 718 725 730 734 738 743 750 755 753 759 763 766
655 667 656 652 650 640 670 643 601 610 617 621 629 626 627 623 628 629 629 639 641 650 656 661 668 674 681 687 692 696 702 708 714 719 724 728 734 735 750 755 756 758 760 762
652 669 671 654 643 658 651 634 625 619 616 621 630 629 628 629 634 635 635 643 645 649 658 666 671 676 680 685 691 697 704 709 714 719 723 728 731 733 742 750 754 755 756 759
653 646 656 653 659 646 642 639 629 626 622 628 626 631 630 635 640 637 638 644 651 657 664 669 672 676 680 687 691 697 703 708 714 719 725 727 731 736 740 745 748 750 752 754
654 655 656 659 656 649 651 648 640 638 633 634 637 631 637 644 643 645 650 655 658 662 665 672 675 676 679 687 692 697 702 708 714 719 724 726 731 736 739 742 744 746 747 748
652 662 656 659 663 663 665 659 654 650 646 646 644 645 644 651 655 657 660 665 667 669 671 676 676 679 682 687 692 697 702 707 713 718 723 727 729 730 736 737 739 741 745 748
650 658 665 674 673 676 668 662 659 657 659 659 656 657 658 658 661 674 669 672 677 678 679 680 679 681 684 689 693 697 704 710 713 715 719 724 729 735 736 737 740 743 745 746
661 664 676 677 684 681 675 671 668 665 666 669 668 666 669 675 680 678 673 676 681 682 683 683 683 684 688 694 697 698 700 705 708 711 715 718 724 729 733 738 740 741 741 742
672 676 687 690 692 690 684 677 675 676 676 678 677 679 680 681 681 679 680 681 681 684 686 684 683 685 690 694 697 701 703 706 709 710 714 718 722 727 729 732 736 740 741 744
689 687 688 697 694 697 690 685 685 690 691 689 687 685 684 682 682 683 684 685 684 684 685 685 685 689 693 695 697 702 705 708 709 712 715 718 722 724 726 729 731 736 743 746
696 697 699 699 705 705 699 691 689 692 689 689 686 686 687 685 684 684 687 686 684 683 685 684 687 691 692 695 696 701 705 708 710 713 718 720 721 723 725 728 729 734 738 739
700 705 706 703 701 701 691 691 694 691 691 689 687 687 685 684 686 688 686 686 686 685 684 686 689 693 694 696 698 700 705 710 711 714 716 718 719 721 722 725 728 730 732 735
708 709 705 702 698 695 697 697 695 693 693 695 694 694 691 691 689 687 687 685 685 686 686 688 691 693 695 696 697 701 705 709 711 715 716 716 719 722 723 725 726 727 730 734
706 708 705 704 701 703 703 705 701 699 700 696 699 696 692 691 690 688 688 685 688 689 691 691 694 695 696 698 699 702 707 709 711 711 715 716 720 721 723 722 723 726 730 733
710 710 708 707 706 706 708 705 702 705 704 701 700 695 695 696 694 692 693 692 694 694 694 696 696 698 699 700 700 703 705 707 709 711 715 716 716 717 719 722 724 726 729 730
711 712 710 707 705 706 706 709 705 705 703 701 700 699 698 697 696 694 691 690 698 699 698 699 698 700 700 702 701 704 706 708 711 712 713 714 714 716 716 718 720 722 722 725
711 711 710 709 706 707 708 707 706 705 703 704 704 704 702 700 699 700 697 694 697 699 700 699 701 702 703 703 703 705 707 710 712 713 715 715 716 715 716 717 718 719 720 722
711 711 710 709 709 711 710 709 707 706 705 705 706 706 702 699 697 694 695 698 701 702 699 700 703 704 705 705 706 707 710 712 712 714 714 715 716 716 716 716 716 718 719 721
712 711 711 711 709 708 707 705 704 706 706 707 708 707 702 699 697 698 700 702 702 703 701 704 707 707 707 706 707 707 709 711 711 711 713 715 714 713 714 714 715 717 717 719
711 709 709 707 704 703 704 706 704 703 706 708 707 707 706 704 703 703 704 700 702 703 702 704 706 707 708 705 704 705 706 707 707 709 709 710 711 711 711 712 712 712 713 714
715 711 710 712 710 709 708 706 704 705 707 705 704 704 701 701 703 701 698 699 700 700 699 698 702 705 705 702 699 699 700 701 704 705 707 706 706 708 708 708 708 709 710 710
717 717 714 715 716 715 716 714 711 711 711 713 710 706 704 704 702 700 698 696 696 694 694 694 694 695 696 695 695 695 697 698 699 700 700 701 702 703 703 703 703 704 705 705